#timestamp,LO_Frequency,Hit,StdDev 
1544025615.6,286047002.7,N
1544025635.4,286047002.8,N
1544025655.2,286047002.2,N
1544025675.1,286046999.7,N
1544025676.0,286046999.7,N
1544025695.8,286047001.2,N
1544025715.6,286046999.8,N
1544025735.5,286047002.0,N
1544025755.3,286047004.2,N
1544025775.2,286047002.7,N
1544025795.9,286047002.7,N
1544025815.7,286047000.2,N
1544025835.6,286047002.8,N
1544025855.4,286047011.9,Y
1544025875.3,286047001.1,P
1544025895.1,286047000.2,N
1544025896.0,286047000.2,N
1544025915.8,286046999.9,N
1544025935.7,286046999.8,N
1544025955.5,286046999.7,N
1544025975.3,286047000.3,N
1544025995.2,286047002.5,Y
1544026015.0,286047002.8,P
1544026015.9,286047002.8,N
1544026035.8,286047001.5,N
1544026055.6,286047002.1,N
1544026075.4,286047002.4,N
1544026095.3,286047003.9,Y
1544026115.1,286046999.9,P
1544026135.9,286046998.6,N
1544026155.7,286047000.8,N
1544026175.5,286047000.6,N
1544026195.4,286046998.7,N
1544026215.2,286047000.9,N
1544026235.0,286046998.8,N
1544026235.9,286046998.8,N
1544026255.8,286047000.9,N
1544026275.6,286047000.9,N
1544026295.5,286047002.4,N
1544026315.3,286046999.7,N
1544026335.1,286046999.8,N
1544026355.9,286047000.4,N
1544026375.7,286047001.0,N
1544026395.5,286046998.4,N
1544026415.4,286047011.9,Y
1544026435.2,286046999.7,P
1544026455.1,286047001.0,P
1544026456.0,286047001.0,N
1544026475.8,286047002.5,Y
1544026495.6,286047000.6,P
1544026515.5,286047000.9,P
1544026535.3,286047000.0,N
1544026555.2,286046999.8,N
1544026575.9,286047000.1,N
1544026595.7,286047000.5,N
1544026615.6,286047003.2,Y
1544026635.4,286047003.6,P
1544026655.3,286047004.3,N
1544026675.1,286047003.8,N
1544026676.0,286047003.8,N
1544026695.8,286047003.9,N
1544026715.7,286047001.4,N
1544026735.5,286047003.5,N
1544026755.3,286047003.4,N
1544026775.2,286047003.8,Y
1544026795.0,286047002.3,P
1544026795.9,286047002.3,P
1544026815.8,286047002.8,P
1544026835.6,286046999.7,N
1544026855.4,286047001.9,N
1544026875.3,286047002.2,N
1544026895.1,286047002.0,N
1544026915.9,286046999.8,N
1544026935.7,286047001.5,N
1544026955.5,286047002.7,N
1544026975.4,286046998.1,N
1544026995.2,286046998.9,N
1544027015.0,286046999.9,N
1544027015.9,286046999.9,N
1544027035.8,286047001.1,N
1544027055.6,286046998.1,N
1544027075.5,286046996.5,N
1544027095.3,286046996.7,N
1544027115.1,286046999.5,N
1544027135.9,286046999.2,N
1544027155.7,286046997.1,N
1544027175.5,286046995.6,N
1544027195.4,286046994.2,N
1544027215.2,286046993.7,N
1544027235.1,286046994.3,N
1544027236.0,286046994.3,N
1544027255.8,286046992.1,N
1544027275.6,286046990.9,N
1544027295.5,286046990.7,N
1544027315.3,286046992.5,N
1544027335.1,286046993.1,N
1544027355.9,286046990.4,N
1544027375.7,286046991.4,N
1544027395.6,286046989.1,N
1544027415.4,286046988.6,N
1544027435.2,286046987.2,Y
1544027455.1,286046992.9,P
1544027456.0,286046992.9,P
1544027475.8,286046992.4,P
1544027495.7,286046991.2,Y
1544027515.5,286046997.7,P
1544027535.3,286046997.8,N
1544027555.2,286046997.3,N
1544027575.0,286046998.1,N
1544027575.9,286046998.1,N
1544027595.7,286047000.1,N
1544027615.6,286046998.3,N
1544027635.4,286046998.2,N
1544027655.3,286046997.0,N
1544027675.1,286046997.9,N
1544027695.8,286046995.4,Y
1544027715.7,286046996.8,P
1544027735.5,286046998.9,N
1544027755.4,286046996.9,P
1544027775.2,286046999.5,N
1544027795.0,286047000.9,N
1544027795.9,286047000.9,N
1544027815.8,286046999.8,N
1544027835.6,286047000.8,N
1544027855.4,286047000.4,N
1544027875.3,286047011.9,Y
1544027895.1,286047000.2,P
1544027915.9,286046998.6,P
1544027935.7,286046999.2,N
1544027955.5,286046996.7,Y
1544027975.4,286047000.9,P
1544028025.2,286046998.9,E
1544028035.1,286047000.8,N
1544028055.9,286047000.0,P
1544028075.7,286046999.9,N
1544028095.6,286047000.1,N
1544028115.4,286047000.1,N
1544028135.2,286047000.6,N
1544028155.1,286047000.1,N
1544028156.0,286047000.1,N
1544028175.8,286047000.9,N
1544028195.6,286047000.6,N
1544028215.5,286047000.6,N
1544028235.3,286046998.7,Y
1544028255.2,286046998.8,P
1544028275.0,286046996.5,P
1544028275.9,286046996.5,N
1544028295.7,286046996.6,N
1544028315.6,286046999.1,N
1544028335.4,286046997.3,N
1544028355.3,286046996.9,N
1544028375.1,286046999.5,N
1544028376.0,286046999.5,N
1544028395.8,286046996.7,N
1544028415.7,286047001.0,N
1544028435.5,286046998.6,N
1544028455.3,286047000.6,N
1544028475.2,286047003.6,N
1544028495.0,286047003.9,N
1544028495.9,286047003.9,N
1544028515.8,286047001.5,N
1544028535.6,286047000.1,N
1544028555.4,286046998.8,N
1544028575.3,286047000.6,N
1544028595.1,286047000.2,N
1544028615.9,286047001.0,N
1544028635.7,286047000.8,N
1544028655.5,286047001.5,N
1544028675.4,286046998.1,N
1544028695.2,286046999.3,N
1544028715.0,286046997.1,N
1544028715.9,286046997.1,N
1544028735.8,286046999.3,N
1544028755.6,286046998.9,N
1544028775.5,286047000.4,N
1544028795.3,286047000.5,N
1544028815.1,286047001.1,N
1544028835.9,286047000.4,N
1544028855.7,286046999.8,N
1544028875.5,286046999.7,N
1544028895.4,286047003.1,N
1544028915.2,286047001.7,N
1544028935.1,286047001.6,N
1544028936.0,286047001.6,N
1544028955.8,286047004.3,N
1544028975.6,286047003.0,N
1544028995.5,286047004.8,N
1544029015.3,286047005.4,N
1544029035.1,286047005.2,N
1544029055.9,286047003.2,N
1544029075.7,286047005.0,N
1544029095.6,286047003.5,N
1544029115.4,286047003.6,N
1544029135.2,286047005.9,N
1544029155.1,286047007.1,N
1544029156.0,286047007.1,N
1544029175.8,286047008.8,Y
1544029195.7,286047004.9,P
